Time,TemperatureF,DewpointF,PressureIn,WindDirection,WindDirectionDegrees,WindSpeedMPH,WindSpeedGustMPH,Humidity,HourlyPrecipIn,Conditions,Clouds,dailyrainin,SoftwareType,DateUTC
2013-03-08 00:14:00,24.6,21.0,30.32,ESE,120,3.0,9.0,87,0.00,,,0.00,weatherlink.com 1.10,2013-03-08 06:14:00,
2013-03-08 00:29:00,24.5,21.0,30.32,ESE,120,3.0,11.0,87,0.00,,,0.00,weatherlink.com 1.10,2013-03-08 06:29:00,
2013-03-08 00:44:00,24.5,22.0,30.32,ESE,120,4.0,8.0,88,0.00,,,0.00,weatherlink.com 1.10,2013-03-08 06:44:00,
2013-03-08 00:59:00,24.2,21.0,30.32,ESE,119,4.0,8.0,88,0.00,,,0.00,weatherlink.com 1.10,2013-03-08 06:59:00,
2013-03-08 01:14:00,24.0,21.0,30.32,ESE,119,3.0,7.0,88,0.00,,,0.00,weatherlink.com 1.10,2013-03-08 07:14:00,
2013-03-08 01:29:00,23.8,21.0,30.32,ESE,117,5.0,9.0,88,0.00,,,0.00,weatherlink.com 1.10,2013-03-08 07:29:00,
2013-03-08 01:44:00,23.7,21.0,30.32,ESE,116,4.0,7.0,88,0.00,,,0.00,weatherlink.com 1.10,2013-03-08 07:44:00,
2013-03-08 01:59:00,23.6,21.0,30.32,ESE,115,3.0,8.0,88,0.00,,,0.00,weatherlink.com 1.10,2013-03-08 07:59:00,
2013-03-08 02:14:00,23.7,21.0,30.32,ESE,113,3.0,9.0,89,0.00,,,0.00,weatherlink.com 1.10,2013-03-08 08:14:00,
2013-03-08 02:29:00,23.7,21.0,30.32,ESE,113,3.0,7.0,89,0.00,,,0.00,weatherlink.com 1.10,2013-03-08 08:29:00,
2013-03-08 02:44:00,23.7,21.0,30.31,ESE,113,5.0,8.0,89,0.00,,,0.00,weatherlink.com 1.10,2013-03-08 08:44:00,
2013-03-08 02:59:00,23.5,21.0,30.30,ESE,111,5.0,8.0,89,0.00,,,0.00,weatherlink.com 1.10,2013-03-08 08:59:00,
2013-03-08 03:15:00,23.4,21.0,30.30,ESE,111,7.0,8.0,89,0.00,,,0.00,weatherlink.com 1.10,2013-03-08 09:15:00,
2013-03-08 03:30:00,23.2,21.0,30.29,ESE,106,4.0,9.0,89,0.00,,,0.00,weatherlink.com 1.10,2013-03-08 09:30:00,
2013-03-08 03:45:00,23.0,20.0,30.29,ESE,103,7.0,9.0,89,0.00,,,0.00,weatherlink.com 1.10,2013-03-08 09:45:00,
2013-03-08 04:00:00,22.9,20.0,30.29,ESE,104,4.0,7.0,90,0.00,,,0.00,weatherlink.com 1.10,2013-03-08 10:00:00,
2013-03-08 04:15:00,22.9,20.0,30.30,ESE,103,1.0,6.0,90,0.00,,,0.00,weatherlink.com 1.10,2013-03-08 10:15:00,
2013-03-08 04:30:00,22.7,20.0,30.30,ESE,103,2.0,7.0,90,0.00,,,0.00,weatherlink.com 1.10,2013-03-08 10:30:00,
2013-03-08 04:45:00,22.7,20.0,30.30,East,101,3.0,8.0,90,0.00,,,0.00,weatherlink.com 1.10,2013-03-08 10:45:00,
2013-03-08 05:00:00,22.7,21.0,30.30,East,101,5.0,9.0,91,0.00,,,0.00,weatherlink.com 1.10,2013-03-08 11:00:00,
2013-03-08 05:15:00,22.8,21.0,30.30,East,101,5.0,7.0,91,0.00,,,0.00,weatherlink.com 1.10,2013-03-08 11:15:00,
2013-03-08 05:30:00,22.6,20.0,30.30,East,101,1.0,7.0,91,0.00,,,0.00,weatherlink.com 1.10,2013-03-08 11:30:00,
2013-03-08 05:45:00,22.5,20.0,30.30,East,101,3.0,8.0,91,0.00,,,0.00,weatherlink.com 1.10,2013-03-08 11:45:00,
2013-03-08 06:00:00,22.6,21.0,30.30,ESE,102,3.0,7.0,92,0.00,,,0.00,weatherlink.com 1.10,2013-03-08 12:00:00,
2013-03-08 06:15:00,22.6,21.0,30.30,ESE,102,5.0,8.0,92,0.00,,,0.00,weatherlink.com 1.10,2013-03-08 12:15:00,
2013-03-08 06:30:00,22.7,21.0,30.30,ESE,102,8.0,9.0,92,0.00,,,0.00,weatherlink.com 1.10,2013-03-08 12:30:00,
2013-03-08 06:45:00,23.2,21.0,30.29,ESE,103,5.0,8.0,92,0.00,,,0.00,weatherlink.com 1.10,2013-03-08 12:45:00,
2013-03-08 07:00:00,23.5,22.0,30.29,ESE,105,8.0,10.0,92,0.00,,,0.00,weatherlink.com 1.10,2013-03-08 13:00:00,
2013-03-08 07:15:00,23.9,22.0,30.29,ESE,107,8.0,9.0,92,0.00,,,0.00,weatherlink.com 1.10,2013-03-08 13:15:00,
2013-03-08 07:30:00,24.3,22.0,30.30,ESE,110,2.0,10.0,92,0.00,,,0.00,weatherlink.com 1.10,2013-03-08 13:30:00,
2013-03-08 07:45:00,24.9,23.0,30.30,ESE,113,4.0,10.0,92,0.00,,,0.00,weatherlink.com 1.10,2013-03-08 13:45:00,
2013-03-08 08:00:00,25.9,24.0,30.30,ESE,113,2.0,8.0,92,0.00,,,0.00,weatherlink.com 1.10,2013-03-08 14:00:00,
2013-03-08 08:15:00,26.7,25.0,30.29,ESE,113,2.0,9.0,91,0.00,,,0.00,weatherlink.com 1.10,2013-03-08 14:15:00,
2013-03-08 08:30:00,27.8,25.0,30.30,ESE,116,5.0,10.0,90,0.00,,,0.00,weatherlink.com 1.10,2013-03-08 14:30:00,
2013-03-08 08:45:00,29.3,26.0,30.30,ESE,123,4.0,13.0,88,0.00,,,0.00,weatherlink.com 1.10,2013-03-08 14:45:00,
2013-03-08 09:00:00,31.0,27.0,30.29,ESE,117,11.0,12.0,86,0.00,,,0.00,weatherlink.com 1.10,2013-03-08 15:00:00,
2013-03-08 09:15:00,32.4,28.0,30.29,ESE,122,5.0,12.0,84,0.00,,,0.00,weatherlink.com 1.10,2013-03-08 15:15:00,
2013-03-08 09:30:00,33.9,29.0,30.29,SE,126,2.0,12.0,83,0.00,,,0.00,weatherlink.com 1.10,2013-03-08 15:30:00,
2013-03-08 09:45:00,35.1,30.0,30.29,ESE,117,11.0,14.0,81,0.00,,,0.00,weatherlink.com 1.10,2013-03-08 15:45:00,
2013-03-08 10:01:00,35.7,30.0,30.28,SE,126,9.0,13.0,79,0.00,,,0.00,weatherlink.com 1.10,2013-03-08 16:01:00,
2013-03-08 10:16:00,37.0,31.0,30.29,SE,136,7.0,14.0,78,0.00,,,0.00,weatherlink.com 1.10,2013-03-08 16:16:00,
2013-03-08 10:31:00,37.9,31.0,30.29,SE,143,6.0,14.0,77,0.00,,,0.00,weatherlink.com 1.10,2013-03-08 16:31:00,
2013-03-08 10:46:00,38.9,32.0,30.28,ESE,105,10.0,15.0,75,0.00,,,0.00,weatherlink.com 1.10,2013-03-08 16:46:00,
2013-03-08 11:01:00,39.8,32.0,30.28,SE,126,5.0,13.0,74,0.00,,,0.00,weatherlink.com 1.10,2013-03-08 17:01:00,
2013-03-08 11:16:00,40.1,32.0,30.27,SE,125,7.0,15.0,73,0.00,,,0.00,weatherlink.com 1.10,2013-03-08 17:16:00,
2013-03-08 11:31:00,40.4,32.0,30.27,ESE,105,5.0,13.0,73,0.00,,,0.00,weatherlink.com 1.10,2013-03-08 17:31:00,
2013-03-08 11:46:00,40.5,32.0,30.26,ESE,110,8.0,14.0,73,0.00,,,0.00,weatherlink.com 1.10,2013-03-08 17:46:00,
2013-03-08 12:01:00,40.7,33.0,30.26,ESE,103,8.0,15.0,73,0.00,,,0.00,weatherlink.com 1.10,2013-03-08 18:01:00,
2013-03-08 12:16:00,41.2,34.0,30.26,ESE,115,5.0,13.0,74,0.00,,,0.00,weatherlink.com 1.10,2013-03-08 18:16:00,
2013-03-08 12:31:00,41.0,33.0,30.25,ESE,110,11.0,14.0,73,0.00,,,0.00,weatherlink.com 1.10,2013-03-08 18:31:00,
2013-03-08 12:46:00,40.4,33.0,30.25,ESE,114,4.0,15.0,75,0.00,,,0.00,weatherlink.com 1.10,2013-03-08 18:46:00,
2013-03-08 13:01:00,40.0,33.0,30.24,ESE,113,3.0,14.0,75,0.00,,,0.00,weatherlink.com 1.10,2013-03-08 19:01:00,
2013-03-08 13:16:00,40.6,33.0,30.23,East,88,5.0,10.0,74,0.00,,,0.00,weatherlink.com 1.10,2013-03-08 19:16:00,
2013-03-08 13:31:00,40.8,33.0,30.23,ESE,109,5.0,14.0,74,0.00,,,0.00,weatherlink.com 1.10,2013-03-08 19:31:00,
2013-03-08 13:46:00,41.3,33.0,30.22,ESE,111,2.0,12.0,73,0.00,,,0.00,weatherlink.com 1.10,2013-03-08 19:46:00,
2013-03-08 14:01:00,41.7,34.0,30.22,ESE,111,7.0,13.0,73,0.00,,,0.00,weatherlink.com 1.10,2013-03-08 20:01:00,
2013-03-08 14:16:00,41.6,34.0,30.21,SE,126,7.0,17.0,74,0.00,,,0.00,weatherlink.com 1.10,2013-03-08 20:16:00,
2013-03-08 14:31:00,42.2,34.0,30.22,SE,125,11.0,15.0,72,0.00,,,0.00,weatherlink.com 1.10,2013-03-08 20:31:00,
2013-03-08 14:46:00,41.6,33.0,30.22,ESE,123,5.0,15.0,72,0.00,,,0.00,weatherlink.com 1.10,2013-03-08 20:46:00,
2013-03-08 15:01:00,42.2,34.0,30.22,SE,132,7.0,16.0,72,0.00,,,0.00,weatherlink.com 1.10,2013-03-08 21:01:00,
2013-03-08 15:16:00,42.6,34.0,30.21,SE,130,6.0,17.0,71,0.00,,,0.00,weatherlink.com 1.10,2013-03-08 21:16:00,
2013-03-08 15:31:00,42.4,34.0,30.20,SE,129,5.0,19.0,71,0.00,,,0.00,weatherlink.com 1.10,2013-03-08 21:31:00,
2013-03-08 15:46:00,42.3,34.0,30.19,ESE,105,8.0,10.0,72,0.00,,,0.00,weatherlink.com 1.10,2013-03-08 21:46:00,
2013-03-08 16:01:00,42.1,34.0,30.18,ESE,102,8.0,13.0,72,0.00,,,0.00,weatherlink.com 1.10,2013-03-08 22:01:00,
2013-03-08 16:16:00,41.5,33.0,30.18,ESE,110,8.0,17.0,72,0.00,,,0.00,weatherlink.com 1.10,2013-03-08 22:16:00,
2013-03-08 16:31:00,40.8,33.0,30.17,East,94,6.0,13.0,73,0.00,,,0.00,weatherlink.com 1.10,2013-03-08 22:31:00,
2013-03-08 16:46:00,40.6,32.0,30.17,East,100,7.0,15.0,72,0.00,,,0.00,weatherlink.com 1.10,2013-03-08 22:46:00,
2013-03-08 17:01:00,40.4,32.0,30.16,ESE,111,4.0,14.0,72,0.00,,,0.00,weatherlink.com 1.10,2013-03-08 23:01:00,
2013-03-08 17:16:00,40.3,32.0,30.15,ESE,115,8.0,15.0,71,0.00,,,0.00,weatherlink.com 1.10,2013-03-08 23:16:00,
2013-03-08 17:31:00,40.0,31.0,30.14,ESE,111,11.0,15.0,71,0.00,,,0.00,weatherlink.com 1.10,2013-03-08 23:31:00,
2013-03-08 17:47:00,39.3,31.0,30.15,ESE,123,7.0,16.0,72,0.00,,,0.00,weatherlink.com 1.10,2013-03-08 23:47:00,
2013-03-08 18:01:00,39.4,31.0,30.15,SE,124,12.0,22.0,72,0.00,,,0.00,weatherlink.com 1.10,2013-03-09 00:01:00,
2013-03-08 18:32:00,38.8,31.0,30.15,SE,130,8.0,17.0,73,0.00,,,0.00,weatherlink.com 1.10,2013-03-09 00:32:00,
2013-03-08 18:47:00,38.2,31.0,30.15,SE,132,6.0,16.0,75,0.00,,,0.00,weatherlink.com 1.10,2013-03-09 00:47:00,
2013-03-08 19:02:00,38.1,31.0,30.14,SE,125,8.0,19.0,76,0.00,,,0.00,weatherlink.com 1.10,2013-03-09 01:02:00,
2013-03-08 19:17:00,37.9,31.0,30.14,SE,138,5.0,16.0,77,0.00,,,0.00,weatherlink.com 1.10,2013-03-09 01:17:00,
2013-03-08 19:32:00,37.3,32.0,30.14,ESE,115,7.0,15.0,80,0.00,,,0.00,weatherlink.com 1.10,2013-03-09 01:32:00,
2013-03-08 19:47:00,36.8,32.0,30.14,SE,126,6.0,14.0,81,0.01,,,0.01,weatherlink.com 1.10,2013-03-09 01:47:00,
2013-03-08 20:02:00,36.6,32.0,30.14,ESE,123,13.0,17.0,82,0.01,,,0.01,weatherlink.com 1.10,2013-03-09 02:02:00,
2013-03-08 20:17:00,36.4,32.0,30.14,SE,136,9.0,14.0,83,0.01,,,0.01,weatherlink.com 1.10,2013-03-09 02:17:00,
2013-03-08 20:32:00,36.2,32.0,30.13,SE,134,7.0,14.0,85,0.01,,,0.01,weatherlink.com 1.10,2013-03-09 02:32:00,
2013-03-08 20:47:00,35.9,32.0,30.13,SE,139,5.0,16.0,86,0.01,,,0.02,weatherlink.com 1.10,2013-03-09 02:47:00,
2013-03-08 21:02:00,35.9,32.0,30.13,SE,133,8.0,17.0,86,0.01,,,0.02,weatherlink.com 1.10,2013-03-09 03:02:00,
2013-03-08 21:17:00,35.8,32.0,30.13,SE,130,11.0,15.0,87,0.01,,,0.02,weatherlink.com 1.10,2013-03-09 03:17:00,
2013-03-08 21:32:00,36.0,32.0,30.12,SE,128,6.0,12.0,86,0.01,,,0.02,weatherlink.com 1.10,2013-03-09 03:32:00,
2013-03-08 21:47:00,36.1,32.0,30.11,ESE,119,11.0,16.0,86,0.00,,,0.02,weatherlink.com 1.10,2013-03-09 03:47:00,
2013-03-08 22:02:00,36.2,33.0,30.11,ESE,120,8.0,16.0,87,0.00,,,0.02,weatherlink.com 1.10,2013-03-09 04:02:00,
2013-03-08 22:17:00,36.3,33.0,30.10,ESE,119,7.0,17.0,87,0.01,,,0.03,weatherlink.com 1.10,2013-03-09 04:17:00,
2013-03-08 22:32:00,36.3,33.0,30.09,SE,124,9.0,15.0,88,0.01,,,0.03,weatherlink.com 1.10,2013-03-09 04:32:00,
2013-03-08 22:47:00,36.1,33.0,30.09,ESE,117,10.0,14.0,89,0.03,,,0.05,weatherlink.com 1.10,2013-03-09 04:47:00,
2013-03-08 23:02:00,35.9,33.0,30.07,ESE,117,3.0,11.0,90,0.04,,,0.06,weatherlink.com 1.10,2013-03-09 05:02:00,
2013-03-08 23:17:00,35.9,34.0,30.07,ESE,117,5.0,13.0,91,0.05,,,0.08,weatherlink.com 1.10,2013-03-09 05:17:00,
2013-03-08 23:32:00,36.1,34.0,30.06,ESE,121,11.0,14.0,91,0.04,,,0.08,weatherlink.com 1.10,2013-03-09 05:32:00,
2013-03-08 23:47:00,36.2,34.0,30.05,SE,127,4.0,15.0,91,0.04,,,0.09,weatherlink.com 1.10,2013-03-09 05:47:00,